{"data":{"norad_id":59809,"intl_designator":"2024-092K","name":"2024-092K","alt_names":[],"object_type":"PAYLOAD","status":"ACTIVE","operator":null,"country":"CIS","launch_date":"2024-05-16","launch_site_code":"PLMSC","launch_vehicle":null,"mission":null,"orbit_class":"UNKNOWN","rcs_meters":null,"size_class":null,"mass_kg":null,"dimensions":null,"purposes":[],"wikipedia_slug":null,"has_3d_model":false,"image_url":null,"decayed_at":null,"tle_current":{"epoch":"2026-09-22T14:35:44.615328Z","epoch_age_seconds":90478,"freshness":"FRESH","line1":"1 59809U 24092K   26265.60815527  .00016619  00000+0  41974-3 0  9993","line2":"2 59809  97.6684  42.7369 0006969 155.7233 204.4342 15.39876872130212","mean_motion":15.39876872,"eccentricity":0.0006969,"inclination_deg":97.6684,"raan_deg":42.7369,"arg_perigee_deg":155.7233,"mean_anomaly_deg":204.4342,"bstar":0.00041974,"rev_number":13021,"period_min":93.513970252032,"perigee_km":441.71701854571,"apogee_km":451.2291600882,"semimajor_km":6824.610089317,"source":"CELESTRAK","updated_at":"2026-09-23T09:00:19.590020Z"}}}